Regional Weather Roundup
Issued by NWS Charleston, SC

Current Version | Previous Version | Graphics & Text | Print | Product List | Glossary On
Versions: 1 2 3 4 5 6 7 8 9 10 11 12 13 14 15 16 17 18 19 20 21 22 23 24 25 26 27 28 29 30 31 32 33 34 35 36 37 38 39 40 41 42 43 44 45 46 47 48 49 50
000
ASUS42 KCHS 291512
RWRCHS

REGIONAL WEATHER ROUNDUP
NATIONAL WEATHER SERVICE CHARLESTON SC
1100 AM EDT FRI MAY 29 2015

NOTE: "FAIR" INDICATES FEW OR NO CLOUDS BELOW 12,000 FEET WITH NO
SIGNIFICANT WEATHER AND/OR OBSTRUCTIONS TO VISIBILITY.

NOT ALL STATIONS ARE QUALITY CONTROLLED BY THE NATIONAL
WEATHER SERVICE. USE DATA WITH CAUTION...ESPECIALLY
DEWPOINT OBSERVATIONS.

SCZ027-030-031-034>040-042>050-291600-
...SOUTHEAST SOUTH CAROLINA...

CITY           SKY/WX    TMP DP  RH WIND       PRES   REMARKS
N CHARLESTON   PTSUNNY   80  64  58 E5        30.23R
WATERFRONT PAR   N/A     78  67  69 E7        30.19S
MOUNT PLEASANT PTSUNNY   79  66  65 E7        30.23R
JOHNS ISLAND   MOSUNNY   81  66  61 E13       30.23R
PINOPOLIS        N/A     81  66  61 VRB3      30.15R
MONCKS CORNER  FAIR      81  64  57 NE3       30.23S
SUMMERVILLE    FAIR      81  64  57 E5        30.24R
BEAUFORT MCAS  PTSUNNY   82  64  54 NE7       30.22R
BEAUFORT ARPT  PTSUNNY   79  66  65 E7        30.22R
HILTON HEAD IS MOSUNNY   79  64  61 NE9       30.23R
WALTERBORO     SUNNY     79  63  57 E6        30.24S
ALLENDALE      FAIR      79  64  61 CALM      30.23R

...SOUTHERN MIDLANDS AND PEE DEE...

CITY           SKY/WX    TMP DP  RH WIND       PRES   REMARKS
GEORGETOWN     NOT AVBL
KINGSTREE      NOT AVBL
ORANGEBURG     SUNNY     79  62  56 E7        30.24S
BARNWELL       FAIR      79  64  61 E6        30.25R
AIKEN          FAIR      77  55  47 CALM      30.28S
MANNING        FAIR      77  50  38 CALM      30.24S
COLUMBIA       MOSUNNY   81  58  45 VRB5      30.24S
SUMTER         SUNNY     80  62  55 E8        30.23S
FLORENCE       SUNNY     80  62  54 E5        30.24S
MYRTLE BEACH   MOSUNNY   81  64  57 E12       30.26R
N MYRTLE BEACH SUNNY     79  65  62 E10       30.24R

$$

GAZ063-065-086>088-099>101-113>116-118-119-134>141-150-291600-
...SOUTHEAST GEORGIA...

CITY           SKY/WX    TMP DP  RH WIND       PRES   REMARKS
SAVANNAH ARPT  PTSUNNY   82  62  50 N5        30.21S
HUNTER AAF     MOSUNNY   82  64  54 VRB5      30.19R
FORT STEWART   PTSUNNY   80  63  56 NE7       30.19R
STATESBORO     MOSUNNY   80  66  61 CALM      30.22S
SYLVANIA       MOSUNNY   81  65  57 CALM      30.23S
CLAXTON        FAIR      81  64  57 NE6       30.21S

...CSRA...CENTRAL AND FAR SOUTHEAST GEORGIA...

CITY           SKY/WX    TMP DP  RH WIND       PRES   REMARKS
THOMSON        SUNNY     79  67  66 CALM      30.29S
AUGUSTA-BUSH   SUNNY     80  62  54 NE5       30.24R
AUGUSTA-DANIEL SUNNY     79  60  52 CALM      30.25R
SWAINSBORO     PTSUNNY   81  66  61 N6        30.24R
VIDALIA        MOSUNNY   79  64  61 E6        30.22R
EASTMAN        FAIR      81  67  61 SE5       30.24S
HAZLEHURST     FAIR      81  66  60 CALM      30.20R
ALMA           SUNNY     80  63  55 E7        30.19S
WAYCROSS       MOSUNNY   81  67  62 E6        30.19S
JESUP          PTSUNNY   84  66  54 E10       30.20R
BAXLEY         FAIR      81  64  57 E6        30.19S
BRUNSWICK        N/A     81  61  50 E12       30.20R
SAINT SIMONS   NOT AVBL

$$

SCZ027-028-034-036>038-045-046-048>050-GAZ119-141-291600-
...LAKE AND SUPPLEMENTAL COASTAL OBSERVATIONS...

STATION/POSITION TIME  TEMP    WIND        PRES    WAVE   SWELL
                       AIR SEA DIR/SP/G            HT/PER HT/PER/DIR
                 (UTC) (F)     (DEG/KT/KT) (MB)    (FT/S) (FT/S/D)
UPR LAKE MARION  NOT AVBL
WINYAH BAY       NOT AVBL
LAKE MURRAY      1400   75     200/  3/  5 1023.7R
ACE BASIN NERRS  NOT AVBL
FORT PULASKI     1400   76 79   70/ 10/ 12 1023.2R
SAPELO ISLAND    1400   81      70/  9     1022.0S

$$

ANZ835-935-AMZ111-154-330-350-352-354-370-450-454-472-291600-
...C-MAN AND BUOY OBSERVATIONS...

STATION/POSITION TIME  TEMP    WIND        PRES    WAVE   SWELL
                       AIR SEA DIR/SP/G            HT/PER HT/PER/DIR
                 (UTC) (F)     (DEG/KT/KT) (MB)    (FT/S) (FT/S/D)
BUOY 41004       1450   76 78   30/ 10/ 12 1022.9R   4/ 8   3/ 8
BUOY 41008       1450   76 78   50/ 12/ 14 1022.7R   3/ 8   3/100/ 8
FOLLY BEACH CMAN 1500   78      60/ 12/ 14 1023.7R
CAPERS NEARSHORE 1408   76      60/ 14/ 17 1023.4R
FRIPP NEARSHORE  1400   78      60/ 10/ 12 1022.5R


STATION/POSITION TIME  TEMP    WIND        PRES    WAVE   SWELL
                       AIR SEA DIR/SP/G            HT/PER HT/PER/DIR
                 (UTC) (F)     (DEG/KT/KT) (MB)    (FT/S) (FT/S/D)
5E ST. MARYS GA  1421      79                N/A     3/ 9
FRYING PAN BUOY  1450   76 75   50/ 14/ 17 1024.2R   4/ 9   3/130/ 9
BUOY 41025       1450   75 76   40/ 10/ 12 1024.7R   3/ 9   3/100/ 9
CAPE LOOKOUT NC  1500   75      50/  9/ 10 1024.4R
BUOY 41002       1450   75 74   80/ 16/ 19 1022.7R   6/ 9   3/ 80/ 9
BUOY 41010       1420   78 81   70/ 12/ 16 1020.2R
ST AUGUSTINE FL  1500   77 78   70/ 10/ 11 1022.3R


$$


USA.gov is the U.S. government's official web portal to all federal, state and local government web resources and services.